Location: ??????
(55.7522°N, 37.6156°E)
Time: 17:11:48
(UTC+00:00)

Aureole 3 Rocket - Pass Details

Date: 14 June 2025
Orbit: 397 x 1696 km, 82.5° (Epoch: 12 July)

Event Time Altitude Azimuth Distance (km) Brightness Sun altitude
Rises 20:03:19 0° 351° (N) 2,326 8.0 -8.8°
Reaches altitude 10° 20:05:17 10° 358° (N) 1,470 6.4 -8.9°
Maximum altitude 20:08:17 47° 75° (ENE) 577 2.9 -9.1°
Enters shadow 20:11:16 12° 149° (SSE) 1,496 4.4 -9.2°
